Date,TemperatureHighF,TemperatureAvgF,TemperatureLowF,DewpointHighF,DewpointAvgF,DewpointLowF,HumidityHigh,HumidityAvg,HumidityLow,PressureMaxIn,PressureMinIn,WindSpeedMaxMPH,WindSpeedAvgMPH,GustSpeedMaxMPH,PrecipitationSumIn
2013-1-2,24.0,18.1,14.0,14.0,7.0,3.0,87,61,41,0.00,40.00,6,-10,12,0.00
2013-1-3,27.0,20.5,14.0,21.0,10.7,0.0,83,65,45,0.00,40.00,14,6,25,0.00
2013-1-4,26.0,22.6,17.0,20.0,15.3,13.0,83,73,65,0.00,40.00,17,11,27,0.00
2013-1-5,36.0,27.4,19.0,24.0,20.4,15.0,89,75,58,0.00,40.00,11,6,18,0.00
2013-1-6,35.0,29.9,23.0,30.0,25.0,20.0,90,81,71,0.00,40.00,16,8,24,0.00
2013-1-7,33.0,28.2,24.0,24.0,22.8,22.0,90,80,64,0.00,40.00,9,4,16,0.00
2013-1-8,40.0,33.1,26.0,30.0,24.7,21.0,82,71,58,0.00,40.00,7,5,13,0.00
2013-1-9,42.0,38.7,34.0,36.0,31.9,28.0,86,76,67,0.00,40.00,14,8,22,0.55
2013-1-10,42.0,35.2,30.0,29.0,25.2,23.0,84,67,51,0.00,40.00,12,6,22,0.00
2013-1-11,56.0,49.0,40.0,51.0,43.8,27.0,93,82,56,0.00,40.00,14,9,26,3.39
2013-1-12,60.0,55.0,49.0,58.0,51.1,44.0,94,86,76,0.00,40.00,11,6,21,7.32
2013-1-13,61.0,50.1,33.0,59.0,48.3,31.0,95,93,84,0.00,40.00,22,8,32,13.97
2013-1-14,32.0,22.7,19.0,31.0,19.2,15.0,94,86,80,0.00,40.00,15,6,23,0.00
2013-1-15,28.0,24.7,20.0,23.0,19.2,16.0,86,79,69,0.00,40.00,8,4,15,0.00
2013-1-16,32.0,28.2,25.0,24.0,21.9,19.0,90,77,59,0.00,40.00,12,5,22,0.00
2013-1-17,37.0,30.3,20.0,27.0,22.7,11.0,82,73,59,0.00,40.00,15,8,24,0.00
2013-1-18,35.0,25.4,17.0,21.0,15.1,11.0,83,65,44,0.00,40.00,13,6,25,0.00
2013-1-19,50.0,41.3,34.0,28.0,23.3,21.0,58,48,38,0.00,40.00,17,12,33,0.00
2013-1-20,43.0,26.5,20.0,33.0,15.1,9.0,76,61,44,0.00,40.00,26,12,37,0.55
2013-1-21,20.0,14.2,6.0,14.0,5.8,-6.0,83,69,42,0.00,40.00,24,10,36,1.65
2013-1-22,11.0,6.3,2.0,-1.0,-3.9,-6.0,72,62,50,0.00,40.00,14,8,25,0.00
2013-1-23,17.0,11.8,6.0,12.0,2.2,-3.0,88,66,41,0.00,40.00,10,6,17,2.75
2013-1-24,19.0,12.9,6.0,13.0,5.9,2.0,89,73,53,0.00,40.00,19,6,29,0.55
2013-1-25,21.0,17.0,14.0,18.0,11.3,4.0,90,78,60,0.00,40.00,12,6,19,4.40
2013-1-26,26.0,21.5,15.0,20.0,16.9,11.0,89,81,63,0.00,40.00,12,5,16,0.55
2013-1-27,31.0,23.3,15.0,29.0,16.0,9.0,90,73,62,0.00,40.00,12,7,20,0.00
2013-1-28,48.0,42.4,31.0,47.0,40.6,29.0,95,93,89,0.00,40.00,14,8,27,2.20
2013-1-29,59.0,54.2,48.0,54.0,50.7,47.0,95,88,77,0.00,40.00,16,8,28,2.75
2013-1-30,61.0,50.7,31.0,55.0,46.1,26.0,95,84,76,0.00,40.00,23,11,37,2.83
2013-1-31,31.0,21.1,13.0,26.0,13.5,6.0,84,72,62,0.00,40.00,23,15,37,3.30
2013-2-1,13.0,8.9,4.0,8.0,1.8,-2.0,83,72,63,0.00,40.00,18,10,29,0.00
2013-2-2,23.0,17.7,9.0,21.0,13.8,3.0,91,84,72,0.00,40.00,11,6,20,5.50
2013-2-3,22.0,16.6,13.0,20.0,12.5,7.0,91,83,65,0.00,40.00,13,5,21,0.55
2013-2-4,28.0,21.2,13.0,26.0,17.4,11.0,93,85,58,0.00,40.00,12,4,18,0.00
2013-2-5,29.0,24.7,20.0,27.0,21.0,18.0,93,85,66,0.00,40.00,10,4,18,0.00
2013-2-6,33.0,27.5,23.0,26.0,19.3,13.0,90,71,47,0.00,40.00,12,5,19,0.00
2013-2-7,45.0,35.2,23.0,31.0,25.3,16.0,80,67,55,0.00,40.00,11,7,18,0.00
2013-2-8,45.0,31.1,22.0,38.0,26.3,17.0,94,82,58,0.00,40.00,22,12,30,3.30
2013-2-9,33.0,25.0,17.0,21.0,17.3,13.0,87,72,53,0.00,40.00,8,4,14,0.00
2013-2-10,45.0,37.4,27.0,40.0,23.7,17.0,90,57,46,0.00,40.00,17,10,32,0.00
2013-2-11,47.0,39.0,31.0,45.0,31.6,23.0,93,75,61,0.00,40.00,24,13,37,0.00
2013-2-12,42.0,32.8,28.0,26.0,23.4,21.0,87,68,49,0.00,40.00,14,7,27,0.00
2013-2-13,34.0,27.8,25.0,25.0,23.0,22.0,91,82,65,0.00,40.00,9,3,13,0.00
2013-2-14,45.0,34.5,28.0,34.0,29.7,24.0,94,83,62,0.00,40.00,17,8,27,0.00
2013-2-15,34.0,28.7,21.0,27.0,23.7,14.0,90,81,67,0.00,40.00,15,5,22,3.85
2013-2-16,24.0,18.8,12.0,19.0,13.0,2.0,88,78,59,0.00,40.00,16,6,23,2.75
2013-2-17,22.0,15.7,11.0,11.0,7.7,3.0,86,70,51,0.00,40.00,9,5,16,2.79
2013-2-18,51.0,34.0,17.0,33.0,19.8,8.0,66,56,45,0.00,40.00,14,10,30,0.55
2013-2-19,44.0,26.8,16.0,38.0,22.1,11.0,94,82,68,0.00,40.00,20,14,35,12.27
2013-2-20,19.0,16.0,12.0,15.0,10.4,6.0,88,78,67,0.00,40.00,17,10,25,7.70
2013-2-21,24.0,20.3,17.0,17.0,14.7,12.0,88,78,70,0.00,40.00,11,5,23,0.00
2013-2-22,36.0,29.8,22.0,34.0,26.5,16.0,94,86,75,0.00,40.00,15,9,24,2.24
2013-2-23,36.0,30.3,25.0,29.0,24.0,20.0,89,77,58,0.00,40.00,12,6,17,0.00
2013-2-24,33.0,27.1,23.0,21.0,19.4,17.0,85,72,55,0.00,40.00,12,6,20,0.00
2013-2-25,42.0,32.2,24.0,26.0,22.1,18.0,79,66,48,0.00,40.00,9,3,16,0.00
2013-2-26,38.0,32.9,30.0,36.0,27.8,22.0,93,81,66,0.00,40.00,16,10,29,2.24
2013-2-27,37.0,32.5,29.0,34.0,30.1,28.0,94,91,85,0.00,40.00,16,10,25,18.40
2013-2-28,33.0,30.8,29.0,32.0,29.1,27.0,95,93,88,0.00,40.00,13,8,21,7.15
2013-3-1,30.0,27.4,24.0,27.0,23.7,17.0,91,85,76,0.00,40.00,7,4,12,0.00
2013-3-2,25.0,23.2,22.0,19.0,17.7,16.0,85,79,70,0.00,40.00,11,6,16,0.55
2013-3-3,29.0,23.6,20.0,17.0,14.5,12.0,84,68,50,0.00,40.00,14,7,22,0.55
2013-3-4,37.0,26.9,15.0,23.0,15.4,11.0,88,64,33,0.00,40.00,6,2,10,0.00
2013-3-5,33.0,30.4,28.0,28.0,25.6,22.0,93,82,68,0.00,40.00,12,7,22,15.70
2013-3-6,32.0,29.1,27.0,27.0,25.8,24.0,93,87,78,0.00,40.00,16,10,25,5.58
2013-3-7,38.0,31.4,28.0,29.0,25.4,23.0,87,78,65,0.00,40.00,11,6,16,0.00
2013-3-8,43.0,31.5,22.0,25.0,21.2,16.0,81,66,43,0.00,40.00,4,2,12,0.00
2013-3-9,49.0,37.7,28.0,33.0,26.8,23.0,82,66,44,0.00,40.00,11,6,16,0.00
2013-3-10,61.0,54.8,49.0,35.0,32.1,30.0,49,42,31,0.00,40.00,11,8,19,0.00
2013-3-11,59.0,47.2,36.0,48.0,40.7,30.0,92,78,34,0.00,40.00,21,11,34,7.70
2013-3-12,35.0,32.2,30.0,31.0,27.0,24.0,89,80,68,0.00,40.00,12,8,22,2.24
2013-3-13,31.0,26.3,23.0,28.0,20.5,15.0,92,78,62,0.00,40.00,17,11,28,7.87
2013-3-14,39.0,28.3,20.0,20.0,16.7,14.0,79,62,38,0.00,40.00,12,6,19,0.00
2013-3-15,46.0,36.6,29.0,39.0,29.7,20.0,92,76,62,0.00,40.00,9,5,16,3.34
2013-3-16,43.0,36.6,28.0,41.0,34.7,27.0,95,92,88,0.00,40.00,13,6,20,3.85
2013-3-17,32.0,28.9,26.0,28.0,24.5,19.0,94,83,71,0.00,40.00,10,4,16,0.00
2013-3-18,46.0,35.4,29.0,44.0,33.1,23.0,94,91,77,0.00,40.00,17,7,25,1.65
2013-3-19,35.0,29.5,23.0,32.0,18.8,13.0,91,65,46,0.00,40.00,23,14,37,0.55
2013-3-20,30.0,25.9,20.0,16.0,12.7,7.0,75,57,47,0.00,40.00,17,10,26,0.00
2013-3-21,27.0,20.9,14.0,20.0,14.0,7.0,88,74,57,0.00,40.00,13,7,22,2.20
2013-3-22,40.0,28.1,18.0,19.0,15.4,13.0,83,61,34,0.00,40.00,13,5,18,0.00
2013-3-23,44.0,33.2,26.0,24.0,19.0,15.0,78,57,32,0.00,40.00,11,3,16,0.00
2013-3-24,33.0,29.0,27.0,26.0,22.5,21.0,92,76,64,0.00,40.00,12,6,25,6.09
2013-3-25,32.0,29.3,27.0,29.0,27.5,25.0,94,92,86,0.00,40.00,20,8,27,10.07
2013-3-26,38.0,32.1,29.0,30.0,27.5,25.0,94,83,63,0.00,40.00,12,1,21,4.40
2013-3-27,39.0,33.2,29.0,28.0,26.2,24.0,88,75,59,0.00,40.00,15,8,24,0.00
2013-3-28,45.0,35.0,26.0,26.0,23.1,20.0,80,62,42,0.00,40.00,14,6,22,0.00
2013-3-29,49.0,39.4,29.0,30.0,25.5,20.0,79,58,36,0.00,40.00,12,4,19,0.00
2013-3-30,54.0,43.8,31.0,29.0,24.0,17.0,71,47,27,0.00,40.00,9,2,17,0.00
2013-3-31,56.0,47.6,43.0,42.0,34.0,-99.9,85,62,44,0.00,40.00,17,6,24,1.69
2013-4-1,46.0,35.5,28.0,40.0,20.8,12.0,80,56,33,0.00,40.00,18,11,27,0.00
2013-4-2,41.0,30.2,21.0,16.0,13.1,9.0,72,50,32,0.00,40.00,15,6,24,0.00
2013-4-3,44.0,32.2,22.0,15.0,10.9,7.0,64,42,24,0.00,40.00,15,5,29,0.00
2013-4-4,55.0,38.5,26.0,14.0,11.2,3.0,55,35,12,0.00,40.00,7,4,12,0.00
2013-4-5,52.0,43.3,36.0,32.0,20.2,13.0,54,39,26,0.00,40.00,14,4,21,0.00
2013-4-6,58.0,44.1,31.0,24.0,17.4,4.0,64,36,23,0.00,40.00,16,9,23,0.00
2013-4-7,70.0,60.3,55.0,42.0,35.2,24.0,57,39,26,0.00,40.00,20,10,30,0.00
2013-4-8,67.0,60.5,52.0,52.0,46.8,36.0,77,61,46,0.00,40.00,16,6,28,0.00
2013-4-9,78.0,66.4,52.0,53.0,50.0,42.0,83,57,38,0.00,40.00,17,7,30,0.00
2013-4-10,76.0,64.7,51.0,62.0,56.6,50.0,95,76,57,0.00,40.00,27,7,43,5.63
2013-4-11,60.0,53.5,45.0,58.0,51.8,44.0,95,94,83,0.00,40.00,15,5,28,5.59
2013-4-12,55.0,42.7,37.0,54.0,37.5,30.0,95,82,64,0.00,40.00,20,9,29,1.65
2013-4-13,44.0,39.0,35.0,35.0,31.3,28.0,90,74,60,0.00,40.00,18,9,27,0.00
2013-4-14,62.0,48.6,37.0,40.0,34.0,28.0,73,58,42,0.00,40.00,11,5,17,0.00
2013-4-15,66.0,59.5,52.0,50.0,45.1,36.0,71,59,43,0.00,40.00,12,7,19,0.00
2013-4-16,67.0,58.9,50.0,58.0,52.9,49.0,95,80,67,0.00,40.00,14,6,23,2.24
2013-4-17,62.0,54.8,49.0,57.0,51.0,46.0,95,87,77,0.00,40.00,12,5,24,1.10
2013-4-18,81.0,68.4,60.0,61.0,55.6,47.0,87,66,38,0.00,40.00,19,10,35,0.00
2013-4-19,70.0,45.9,35.0,57.0,37.8,27.0,94,74,53,0.00,40.00,21,13,34,3.93
2013-4-20,43.0,35.9,31.0,31.0,25.0,20.0,89,65,39,0.00,40.00,18,9,32,0.00
2013-4-21,51.0,38.5,28.0,32.0,23.0,18.0,76,54,35,0.00,40.00,8,3,14,0.00
2013-4-22,67.0,50.9,36.0,37.0,29.3,22.0,78,45,24,0.00,40.00,7,4,19,0.00
2013-4-23,68.0,58.9,48.0,49.0,38.7,30.0,64,47,33,0.00,40.00,11,6,23,0.00
2013-4-24,61.0,45.4,36.0,53.0,40.7,29.0,95,84,60,0.00,40.00,19,9,30,7.78
2013-4-25,52.0,41.5,33.0,35.0,29.8,19.0,91,65,32,0.00,40.00,20,7,32,0.00
2013-4-26,59.0,47.5,35.0,32.0,28.1,25.0,75,48,30,0.00,40.00,9,3,16,0.00
2013-4-27,67.0,56.2,45.0,45.0,32.0,24.0,66,41,19,0.00,40.00,13,4,18,0.00
2013-4-28,63.0,55.4,51.0,55.0,50.2,-99.9,94,86,65,0.00,40.00,11,5,19,2.75
2013-4-29,63.0,57.1,54.0,54.0,52.4,50.0,94,85,66,0.00,40.00,6,3,11,0.00
2013-4-30,74.0,62.4,53.0,55.0,51.4,49.0,91,69,43,0.00,40.00,10,5,16,0.00
2013-5-1,80.0,68.7,58.0,57.0,51.9,49.0,73,56,34,0.00,40.00,10,4,17,0.00
2013-5-2,71.0,65.4,59.0,52.0,49.7,47.0,67,57,47,0.00,40.00,12,6,19,0.00
2013-5-3,75.0,66.1,59.0,52.0,45.1,33.0,75,50,25,0.00,40.00,14,9,22,0.00
2013-5-4,69.0,61.5,55.0,45.0,40.0,33.0,60,45,31,0.00,40.00,14,8,22,0.00
2013-5-5,69.0,61.0,52.0,44.0,39.0,32.0,66,45,29,0.00,40.00,11,5,18,0.00
2013-5-6,65.0,59.0,53.0,54.0,44.5,30.0,87,60,30,0.00,40.00,7,3,13,1.10
2013-5-7,71.0,60.7,54.0,56.0,52.5,50.0,92,75,50,0.00,40.00,9,3,19,1.10
2013-5-8,72.0,62.9,55.0,55.0,51.3,49.0,86,66,46,0.00,40.00,6,3,13,0.00
2013-5-9,79.0,67.2,56.0,56.0,49.7,41.0,79,56,27,0.00,40.00,11,3,19,0.00
2013-5-10,67.0,60.2,57.0,61.0,54.9,-99.9,94,87,68,0.00,40.00,18,5,32,10.12
2013-5-11,57.0,48.3,41.0,54.0,44.1,35.0,94,85,73,0.00,40.00,22,8,34,0.55
2013-5-12,49.0,41.7,36.0,36.0,29.0,-99.9,88,64,41,0.00,40.00,17,7,25,0.00
2013-5-13,56.0,45.1,34.0,33.0,26.9,22.0,73,50,29,0.00,40.00,13,3,21,0.00
2013-5-14,76.0,59.8,45.0,55.0,38.7,26.0,58,46,34,0.00,40.00,13,6,27,0.00
2013-5-15,86.0,75.0,67.0,59.0,54.1,50.0,64,49,29,0.00,40.00,17,9,30,0.00
2013-5-16,77.0,65.0,59.0,61.0,32.6,-99.9,87,57,30,0.00,40.00,12,2,25,0.00
2013-5-17,79.0,67.1,59.0,63.0,53.4,-99.9,93,73,34,0.00,40.00,9,3,18,0.55
2013-5-18,76.0,66.3,58.0,62.0,56.2,50.0,88,70,54,0.00,40.00,6,2,11,2.79
2013-5-19,81.0,70.2,62.0,65.0,61.4,58.0,91,74,49,0.00,40.00,7,3,13,0.00
2013-5-20,83.0,74.5,67.0,68.0,64.1,61.0,93,71,50,0.00,40.00,10,5,19,1.10
2013-5-21,84.0,74.8,68.0,65.0,60.1,54.0,83,62,37,0.00,40.00,14,6,25,0.00
2013-5-22,79.0,69.7,63.0,63.0,59.2,56.0,90,70,46,0.00,40.00,16,6,27,0.00
2013-5-23,66.0,58.1,44.0,62.0,53.6,41.0,93,85,63,0.00,40.00,17,7,27,1.10
2013-5-24,59.0,48.7,40.0,41.0,36.0,31.0,90,63,35,0.00,40.00,17,8,26,0.00
2013-5-25,63.0,52.7,41.0,41.0,36.8,33.0,82,56,34,0.00,40.00,7,2,14,0.00
2013-5-26,67.0,55.8,44.0,39.0,33.6,30.0,68,44,25,0.00,40.00,6,2,11,0.00
2013-5-27,68.0,57.2,48.0,54.0,43.9,30.0,92,62,39,0.00,40.00,15,6,22,1.65
2013-5-28,80.0,71.6,60.0,64.0,58.7,54.0,89,64,48,0.00,40.00,13,7,24,0.55
2013-5-29,84.0,75.5,69.0,59.0,56.3,52.0,64,52,34,0.00,40.00,12,6,27,0.00
2013-5-30,86.0,76.5,69.0,64.0,60.8,56.0,78,59,42,0.00,40.00,11,5,19,0.00
2013-5-31,80.0,71.7,65.0,69.0,63.0,60.0,94,75,55,0.00,40.00,17,6,32,0.00
2013-6-1,77.0,70.5,64.0,66.0,63.9,60.0,94,80,62,0.00,40.00,13,6,29,6.22
2013-6-2,73.0,66.6,60.0,64.0,56.5,-99.9,88,73,56,0.00,40.00,12,8,24,0.00
2013-6-3,64.0,56.0,52.0,53.0,47.8,44.0,86,74,53,0.00,40.00,10,4,16,0.00
2013-6-4,71.0,59.8,47.0,47.0,43.3,37.0,86,56,37,0.00,40.00,7,2,12,0.00
2013-6-5,77.0,64.6,52.0,52.0,46.6,41.0,68,53,34,0.00,40.00,7,3,19,0.00
2013-6-6,63.0,57.5,53.0,58.0,53.8,46.0,95,87,56,0.00,40.00,8,3,13,1.65
2013-6-7,65.0,57.3,53.0,56.0,52.4,49.0,94,84,67,0.00,40.00,9,3,17,0.00
2013-6-8,74.0,62.2,50.0,55.0,50.4,47.0,92,68,41,0.00,40.00,5,1,10,0.55
2013-6-9,80.0,70.3,63.0,63.0,57.2,52.0,80,64,38,0.00,40.00,11,5,21,0.55
2013-6-10,77.0,67.3,64.0,64.0,61.3,57.0,92,81,51,0.00,40.00,10,5,17,2.75
2013-6-11,83.0,70.6,62.0,63.0,60.1,56.0,92,72,44,0.00,40.00,11,6,16,0.00
2013-6-12,85.0,76.7,68.0,71.0,65.6,59.0,82,68,57,0.00,40.00,7,3,16,0.00
2013-6-13,79.0,67.4,62.0,69.0,57.8,49.0,94,73,43,0.00,40.00,14,8,27,2.79
2013-6-14,74.0,65.5,58.0,57.0,54.9,51.0,90,70,47,0.00,40.00,11,4,17,0.00
2013-6-15,76.0,67.4,59.0,64.0,56.8,53.0,88,69,46,0.00,40.00,6,2,12,0.55
2013-6-16,77.0,70.2,65.0,64.0,62.0,60.0,88,75,63,0.00,40.00,14,6,25,0.55
2013-6-17,82.0,72.8,67.0,66.0,62.5,57.0,91,72,44,0.00,40.00,7,3,12,0.00
2013-6-18,76.0,70.4,59.0,64.0,59.1,54.0,84,67,51,0.00,40.00,12,4,17,0.00
2013-6-19,75.0,64.5,53.0,54.0,46.5,39.0,86,56,27,0.00,40.00,6,3,12,0.00
2013-6-20,81.0,67.2,57.0,56.0,50.4,48.0,76,56,35,0.00,40.00,6,2,9,0.00
2013-6-22,86.0,80.5,73.0,68.0,65.1,60.0,71,59,46,0.00,40.00,8,5,17,0.00
2013-6-23,86.0,75.9,69.0,70.0,63.6,61.0,83,67,42,0.00,40.00,10,3,19,0.00
2013-6-24,84.0,73.7,67.0,66.0,63.2,62.0,85,70,50,0.00,40.00,11,4,17,0.00
2013-6-25,87.0,77.3,68.0,71.0,66.1,62.0,88,69,48,0.00,40.00,13,6,24,0.00
2013-6-26,83.0,70.8,64.0,70.0,64.3,61.0,94,81,59,0.00,40.00,14,4,21,0.55
2013-6-27,82.0,72.1,67.0,68.0,66.0,63.0,94,82,56,0.00,40.00,11,5,19,1.10
2013-6-28,79.0,69.4,62.0,67.0,61.4,55.0,90,76,49,0.00,40.00,16,5,22,0.55
2013-6-29,77.0,66.2,60.0,64.0,60.6,58.0,93,82,56,0.00,40.00,15,2,22,0.00
2013-6-30,73.0,65.5,61.0,68.0,61.7,57.0,94,87,71,0.00,40.00,12,3,29,0.55
2013-7-1,66.0,62.9,61.0,64.0,60.3,58.0,94,91,80,0.00,40.00,7,4,16,5.04
2013-7-2,80.0,69.6,63.0,67.0,63.3,61.0,94,81,58,0.00,40.00,7,3,12,0.00
2013-7-3,80.0,72.3,68.0,65.0,63.9,61.0,88,75,55,0.00,40.00,7,3,12,0.00
2013-7-4,73.0,68.9,67.0,67.0,65.5,63.0,94,89,78,0.00,40.00,9,3,14,2.20
2013-7-5,78.0,69.3,65.0,66.0,64.8,63.0,94,85,61,0.00,40.00,7,4,12,1.65
2013-7-6,77.0,70.6,67.0,70.0,67.0,64.0,93,88,79,0.00,40.00,9,3,16,1.10
2013-7-7,77.0,68.7,64.0,65.0,63.2,58.0,94,83,60,0.00,40.00,8,4,15,0.00
2013-7-8,80.0,71.2,67.0,71.0,66.4,64.0,93,85,72,0.00,40.00,7,3,12,5.03
2013-7-9,86.0,76.8,69.0,74.0,69.5,65.0,88,78,61,0.00,40.00,11,5,25,4.48
2013-7-10,85.0,72.5,64.0,73.0,63.9,-99.9,92,79,65,0.00,40.00,11,5,21,2.24
2013-7-11,74.0,68.7,62.0,63.0,58.4,52.0,89,71,48,0.00,40.00,9,3,18,0.00
2013-7-12,78.0,67.2,59.0,60.0,56.5,54.0,84,69,52,0.00,40.00,7,3,14,0.00
2013-7-13,82.0,73.9,62.0,66.0,62.6,59.0,91,68,49,0.00,40.00,8,4,16,0.00
2013-7-14,86.0,77.0,68.0,71.0,67.1,64.0,86,71,57,0.00,40.00,9,4,14,0.00
2013-7-15,89.0,79.0,74.0,69.0,67.4,65.0,82,68,47,0.00,40.00,6,3,11,0.00
2013-7-16,90.0,81.0,73.0,73.0,69.1,66.0,84,68,49,0.00,40.00,6,1,9,0.00
2013-7-17,90.0,80.4,74.0,71.0,69.2,66.0,84,69,48,0.00,40.00,7,3,12,0.00
2013-7-18,91.0,81.8,73.0,71.0,68.4,66.0,85,65,44,0.00,40.00,7,2,11,0.00
2013-7-19,89.0,81.0,73.0,72.0,69.4,68.0,86,69,52,0.00,40.00,12,5,20,0.00
2013-7-20,78.0,73.4,66.0,71.0,68.1,64.0,94,83,71,0.00,40.00,9,4,20,1.10
2013-7-21,82.0,74.4,67.0,69.0,66.4,63.0,94,77,54,0.00,40.00,6,2,8,1.10
2013-7-22,76.0,70.3,64.0,68.0,66.0,62.0,94,86,72,0.00,40.00,7,2,12,2.75
2013-7-23,85.0,73.9,66.0,69.0,65.6,61.0,94,76,51,0.00,40.00,15,6,23,0.00
2013-7-24,71.0,63.3,57.0,60.0,54.2,51.0,84,72,49,0.00,40.00,9,4,17,0.00
2013-7-25,74.0,62.4,53.0,56.0,51.9,48.0,85,69,47,0.00,40.00,7,2,12,0.00
2013-7-26,77.0,67.2,58.0,58.0,54.4,51.0,83,64,41,0.00,40.00,6,2,13,0.00
2013-7-27,75.0,65.5,59.0,64.0,58.0,53.0,94,78,45,0.00,40.00,12,5,21,3.34
2013-7-28,66.0,60.0,53.0,54.0,50.0,46.0,93,71,49,0.00,40.00,12,4,22,0.00
2013-7-29,70.0,61.4,56.0,57.0,51.9,48.0,85,71,46,0.00,40.00,11,3,16,0.00
2013-7-30,76.0,66.3,58.0,62.0,55.4,52.0,84,68,48,0.00,40.00,6,1,11,0.00
2013-7-31,71.0,66.8,64.0,64.0,61.3,57.0,93,82,70,0.00,40.00,7,3,11,0.00
2013-8-1,78.0,68.5,63.0,65.0,61.3,57.0,93,78,51,0.00,40.00,9,5,14,1.65
2013-8-2,77.0,67.0,57.0,62.0,58.0,53.0,90,73,56,0.00,40.00,9,3,21,0.00
2013-8-3,76.0,69.6,65.0,64.0,61.6,57.0,93,76,52,0.00,40.00,9,3,13,5.58
2013-8-4,73.0,64.6,58.0,58.0,54.9,52.0,90,71,47,0.00,40.00,11,4,17,0.00
2013-8-5,73.0,63.7,58.0,60.0,53.6,49.0,84,69,50,0.00,40.00,6,2,9,0.00
2013-8-6,78.0,69.6,63.0,63.0,58.0,54.0,79,66,54,0.00,40.00,7,4,14,0.00
2013-8-7,81.0,73.6,68.0,69.0,66.7,63.0,92,79,64,0.00,40.00,10,3,13,0.00
2013-8-8,79.0,72.9,68.0,72.0,69.4,66.0,94,89,74,0.00,40.00,8,2,12,0.00
2013-8-9,79.0,68.9,60.0,66.0,62.4,59.0,94,81,54,0.00,40.00,8,3,12,1.10
2013-8-10,82.0,73.2,65.0,66.0,62.1,59.0,87,69,48,0.00,40.00,7,2,12,0.00
2013-8-11,80.0,70.5,63.0,66.0,61.9,58.0,92,75,49,0.00,40.00,8,2,14,0.00
2013-8-12,82.0,71.2,64.0,65.0,61.1,58.0,87,71,55,0.00,40.00,6,2,12,0.00
2013-8-21,82.0,72.5,64.0,68.0,62.6,59.0,87,71,59,0.00,40.00,7,3,12,0.55
2013-8-22,77.0,70.9,66.0,67.0,65.4,63.0,92,82,70,0.00,40.00,10,4,17,0.55
2013-8-23,80.0,71.2,64.0,66.0,61.4,52.0,93,72,50,0.00,40.00,9,-21,14,0.55
2013-8-24,82.0,69.2,58.0,60.0,54.2,50.0,74,59,40,0.00,40.00,5,2,11,0.00
2013-8-25,83.0,73.0,65.0,59.0,51.6,-99.9,70,50,35,0.00,40.00,6,3,11,0.00
2013-8-26,85.0,75.4,65.0,67.0,62.5,56.0,78,64,49,0.00,40.00,9,4,17,0.00
2013-8-27,81.0,73.8,70.0,71.0,67.2,65.0,88,80,70,0.00,40.00,7,4,11,0.00
2013-9-23,64.0,53.2,45.0,45.0,42.6,40.0,86,68,44,0.00,40.00,6,3,11,0.00
2013-9-24,67.0,54.4,44.0,48.0,44.0,41.0,90,69,42,0.00,40.00,9,3,12,0.00
2013-9-25,73.0,59.7,51.0,51.0,47.6,46.0,87,66,39,0.00,40.00,4,2,10,0.00
2013-9-26,77.0,63.5,53.0,52.0,47.6,44.0,87,60,31,0.00,40.00,7,2,15,0.00
2013-9-27,76.0,64.7,53.0,51.0,47.5,39.0,82,55,35,0.00,40.00,6,2,11,0.00
2013-9-28,77.0,66.2,55.0,51.0,49.2,46.0,84,56,34,0.00,40.00,7,3,11,0.00
2013-9-29,66.0,60.6,59.0,58.0,52.2,-99.9,92,77,62,0.00,40.00,6,4,14,0.55
2013-9-30,71.0,65.8,62.0,62.0,58.7,58.0,94,78,65,0.00,40.00,6,4,14,0.00
2013-10-1,67.0,65.1,64.0,58.0,57.4,57.0,81,76,71,0.00,40.00,4,3,7,0.00
2013-10-2,79.0,69.9,63.0,64.0,60.8,58.0,86,74,53,0.00,40.00,6,2,10,0.00
2013-10-17,49.0,47.4,44.0,45.0,43.1,41.0,88,84,79,0.00,40.00,12,7,21,0.00
2013-10-18,61.0,48.2,41.0,45.0,40.5,39.0,91,77,45,0.00,40.00,11,4,19,0.00
2013-10-19,46.0,42.1,39.0,41.0,37.7,34.0,94,84,70,0.00,40.00,11,5,17,3.30
2013-10-20,58.0,44.2,37.0,41.0,32.1,-99.9,85,68,45,0.00,40.00,9,5,16,0.00
2013-10-21,62.0,52.4,43.0,48.0,41.3,37.0,93,67,46,0.00,40.00,12,7,23,1.65
2013-10-22,48.0,39.6,31.0,37.0,27.2,21.0,92,63,35,0.00,40.00,11,5,21,0.55
2013-10-23,43.0,35.5,33.0,35.0,32.1,29.0,95,88,58,0.00,40.00,11,4,18,3.34
2013-10-24,43.0,35.7,31.0,31.0,28.1,23.0,91,75,44,0.00,40.00,14,6,21,0.00
2013-11-6,59.0,53.7,42.0,55.0,44.4,35.0,94,72,54,0.00,40.00,16,9,25,0.55
2013-11-7,44.0,39.8,37.0,40.0,30.7,24.0,93,71,47,0.00,40.00,16,9,22,0.00
2013-11-8,44.0,36.1,31.0,33.0,28.8,26.0,93,76,50,0.00,40.00,9,4,12,0.00
2013-11-9,56.0,45.8,37.0,38.0,29.1,-99.9,71,55,45,0.00,40.00,18,10,31,0.00
2013-11-10,46.0,40.0,34.0,37.0,29.1,25.0,78,65,51,0.00,40.00,16,9,27,0.00
2013-11-11,48.0,38.8,27.0,37.0,29.5,26.0,94,70,44,0.00,40.00,16,8,24,4.99
2013-11-12,29.0,25.3,19.0,24.0,20.1,16.0,92,80,66,0.00,40.00,14,8,21,0.55
2013-11-18,36.0,34.3,33.0,28.0,26.7,25.0,75,72,70,0.00,40.00,11,9,19,0.00
2013-11-19,39.0,33.0,29.0,26.0,23.9,22.0,81,69,52,0.00,40.00,10,4,18,0.00
2013-11-20,45.0,35.7,27.0,29.0,25.0,21.0,78,65,52,0.00,40.00,13,7,19,0.00
2013-11-21,51.0,43.9,38.0,44.0,36.6,26.0,88,76,49,0.00,40.00,8,4,13,1.10
2013-11-22,50.0,43.2,31.0,48.0,40.7,27.0,95,90,78,0.00,40.00,15,8,24,2.20
2013-11-23,30.0,29.3,29.0,26.0,26.0,26.0,88,86,85,0.00,40.00,4,4,8,0.00
2013-11-30,44.0,34.2,27.0,26.0,19.9,-99.9,73,59,42,0.00,40.00,9,6,17,0.00
2013-12-1,48.0,39.0,34.0,33.0,28.2,24.0,85,65,54,0.00,40.00,9,4,16,0.00
2013-12-2,40.0,34.5,31.0,32.0,30.2,29.0,93,84,69,0.00,40.00,6,3,10,0.55
2013-12-3,48.0,41.0,34.0,43.0,38.0,32.0,94,89,79,0.00,40.00,7,5,13,4.40
2013-12-4,59.0,51.6,43.0,52.0,47.2,41.0,91,85,77,0.00,40.00,11,6,21,0.00
2013-12-5,60.0,43.8,28.0,54.0,39.1,25.0,93,83,69,0.00,40.00,13,8,21,0.55
2013-12-6,28.0,26.0,25.0,26.0,24.0,23.0,93,91,85,0.00,40.00,8,6,12,1.65
2013-12-9,26.0,22.5,20.0,21.0,17.1,12.0,82,79,71,0.00,40.00,12,9,22,0.00
2013-12-10,23.0,17.8,15.0,14.0,10.2,3.0,89,72,49,0.00,40.00,17,9,30,1.65
2013-12-11,27.0,17.8,12.0,19.0,12.4,6.0,87,78,67,0.00,40.00,11,6,19,0.55
2013-12-12,17.0,11.4,3.0,6.0,-0.3,-5.0,84,60,40,0.00,40.00,11,7,21,0.00
2013-12-13,31.0,23.7,15.0,26.0,11.5,-1.0,87,59,49,0.00,40.00,9,5,14,1.10
2013-12-14,34.0,29.7,25.0,32.0,26.4,-99.9,95,92,90,0.00,40.00,13,6,19,8.29